Time,TemperatureF,DewpointF,PressureIn,WindDirection,WindDirectionDegrees,WindSpeedMPH,WindSpeedGustMPH,Humidity,HourlyPrecipIn,Conditions,Clouds,dailyrainin,SoftwareType,DateUTC
2013-08-15 00:22:00,73.0,73.0,-100.00,North,-999,-999.0,-999.0,100,0.00,,,0.00,,2013-08-15 05:22:00,
2013-08-15 00:32:00,73.0,73.0,-100.00,North,-999,-999.0,-999.0,100,0.00,,,0.00,,2013-08-15 05:32:00,
2013-08-15 00:42:00,73.0,73.0,-100.00,North,-999,-999.0,-999.0,100,0.00,,,0.00,,2013-08-15 05:42:00,
2013-08-15 00:52:00,73.0,73.0,-100.00,North,-999,-999.0,-999.0,100,0.00,,,0.00,,2013-08-15 05:52:00,
2013-08-15 01:21:00,73.0,73.0,-100.00,North,-999,-999.0,-999.0,100,0.00,,,-99.99,,2013-08-15 06:21:00,
2013-08-15 01:51:00,73.0,73.0,-100.00,North,-999,-999.0,-999.0,100,0.00,,,0.00,,2013-08-15 06:51:00,
2013-08-15 02:02:00,73.0,73.0,-100.00,North,-999,-999.0,-999.0,100,0.00,,,0.00,,2013-08-15 07:02:00,
2013-08-15 02:21:00,72.0,72.0,-100.00,North,-999,-999.0,-999.0,100,0.00,,,0.00,,2013-08-15 07:21:00,
2013-08-15 02:52:00,72.0,72.0,-100.00,North,-999,-999.0,-999.0,100,0.00,,,0.00,,2013-08-15 07:52:00,
2013-08-15 03:21:00,72.0,72.0,-100.00,North,-999,-999.0,-999.0,100,0.00,,,0.00,,2013-08-15 08:21:00,
2013-08-15 03:52:00,72.0,72.0,-100.00,North,-999,-999.0,-999.0,100,0.00,,,0.00,,2013-08-15 08:52:00,
2013-08-15 04:21:00,72.0,72.0,-100.00,North,-999,-999.0,-999.0,100,0.00,,,-99.99,,2013-08-15 09:21:00,
2013-08-15 04:53:00,72.0,72.0,-100.00,North,-999,-999.0,-999.0,100,0.00,,,0.00,,2013-08-15 09:53:00,
2013-08-15 05:12:00,72.0,72.0,-100.00,North,-999,-999.0,-999.0,100,0.00,,,0.00,,2013-08-15 10:12:00,
2013-08-15 05:22:00,72.0,72.0,-100.00,North,-999,-999.0,-999.0,100,0.00,,,0.00,,2013-08-15 10:22:00,
2013-08-15 05:32:00,72.0,72.0,-100.00,North,-999,-999.0,-999.0,100,0.00,,,0.00,,2013-08-15 10:32:00,
2013-08-15 05:52:00,72.0,72.0,-100.00,North,-999,-999.0,-999.0,100,0.00,,,-99.99,,2013-08-15 10:52:00,
2013-08-15 06:02:00,72.0,72.0,-100.00,North,-999,-999.0,-999.0,100,0.00,,,-99.99,,2013-08-15 11:02:00,
2013-08-15 06:22:00,71.0,71.0,-100.00,North,-999,-999.0,-999.0,100,-99.99,,,0.00,,2013-08-15 11:22:00,
2013-08-15 06:32:00,71.0,71.0,-100.00,North,-999,-999.0,-999.0,100,-99.99,,,0.00,,2013-08-15 11:32:00,
2013-08-15 06:51:00,71.0,71.0,-100.00,North,-999,-999.0,-999.0,100,0.00,,,0.00,,2013-08-15 11:51:00,
2013-08-15 07:21:00,71.0,71.0,-100.00,North,-999,-999.0,-999.0,100,0.00,,,0.00,,2013-08-15 12:21:00,
2013-08-15 07:51:00,70.0,70.0,-100.00,North,-999,-999.0,-999.0,100,0.00,,,0.00,,2013-08-15 12:51:00,
2013-08-15 08:21:00,71.0,71.0,-100.00,North,-999,-999.0,-999.0,100,0.00,,,0.00,,2013-08-15 13:21:00,
2013-08-15 08:42:00,71.0,71.0,-100.00,North,-999,-999.0,-999.0,100,0.00,,,0.00,,2013-08-15 13:42:00,
2013-08-15 08:52:00,71.0,71.0,-100.00,North,-999,-999.0,-999.0,100,0.00,,,0.00,,2013-08-15 13:52:00,
2013-08-15 09:22:00,72.0,72.0,-100.00,North,-999,-999.0,-999.0,100,0.00,,,-99.99,,2013-08-15 14:22:00,
2013-08-15 09:43:00,73.0,73.0,-100.00,North,-999,-999.0,-999.0,100,0.00,,,0.00,,2013-08-15 14:43:00,
2013-08-15 09:53:00,73.0,73.0,-100.00,North,-999,-999.0,-999.0,100,0.00,,,0.00,,2013-08-15 14:53:00,
2013-08-15 10:04:00,73.0,73.0,-100.00,North,-999,-999.0,-999.0,100,0.00,,,0.00,,2013-08-15 15:04:00,
2013-08-15 10:23:00,76.0,73.0,-100.00,North,-999,-999.0,-999.0,90,0.00,,,0.00,,2013-08-15 15:23:00,
2013-08-15 10:54:00,78.0,71.0,-100.00,North,-999,-999.0,-999.0,79,-99.99,,,0.00,,2013-08-15 15:54:00,
2013-08-15 11:26:00,79.0,71.0,-100.00,North,-999,-999.0,-999.0,78,0.00,,,0.00,,2013-08-15 16:26:00,
2013-08-15 11:55:00,82.0,71.0,-100.00,North,-999,-999.0,-999.0,68,0.00,,,0.00,,2013-08-15 16:55:00,
2013-08-15 12:30:00,80.0,-99.9,-100.00,North,-999,-999.0,-999.0,74,0.00,,,0.00,,2013-08-15 17:30:00,
2013-08-15 15:04:00,86.0,70.0,-100.00,North,-999,-999.0,-999.0,57,0.00,,,0.00,,2013-08-15 20:04:00,
2013-08-15 15:28:00,87.0,69.0,-100.00,North,-999,-999.0,-999.0,55,0.00,,,0.00,,2013-08-15 20:28:00,
2013-08-15 15:34:00,87.0,69.0,-100.00,North,-999,-999.0,-999.0,55,0.00,,,0.00,,2013-08-15 20:34:00,
2013-08-15 15:54:00,87.0,69.0,-100.00,North,-999,-999.0,-999.0,54,0.00,,,0.00,,2013-08-15 20:54:00,
2013-08-15 16:36:00,86.0,69.0,-100.00,North,-999,-999.0,-999.0,57,0.00,,,0.00,,2013-08-15 21:36:00,
2013-08-15 16:57:00,85.0,69.0,-100.00,North,-999,-999.0,-999.0,58,0.00,,,0.00,,2013-08-15 21:57:00,
2013-08-15 17:09:00,85.0,69.0,-100.00,North,-999,-999.0,-999.0,58,0.00,,,0.00,,2013-08-15 22:09:00,
2013-08-15 17:29:00,86.0,69.0,-100.00,North,-999,-999.0,-999.0,56,0.00,,,0.00,,2013-08-15 22:29:00,
2013-08-15 17:58:00,86.0,69.0,-100.00,North,-999,-999.0,-999.0,56,0.00,,,-99.99,,2013-08-15 22:58:00,
2013-08-15 18:55:00,84.0,69.0,-100.00,North,-999,-999.0,-999.0,62,0.00,,,0.00,,2013-08-15 23:55:00,
2013-08-15 20:26:00,71.0,71.0,-100.00,North,-999,-999.0,-999.0,100,1.53,,,1.61,,2013-08-16 01:26:00,
2013-08-15 20:54:00,71.0,71.0,-100.00,North,-999,-999.0,-999.0,100,0.17,,,-99.99,,2013-08-16 01:54:00,
2013-08-15 21:21:00,71.0,71.0,-100.00,North,-999,-999.0,-999.0,100,0.07,,,1.68,,2013-08-16 02:21:00,
2013-08-15 21:52:00,72.0,72.0,-100.00,North,-999,-999.0,-999.0,100,0.01,,,-99.99,,2013-08-16 02:52:00,
2013-08-15 22:22:00,72.0,72.0,-100.00,North,-999,-999.0,-999.0,100,0.00,,,1.68,,2013-08-16 03:22:00,
2013-08-15 22:53:00,72.0,72.0,-100.00,North,-999,-999.0,-999.0,100,0.00,,,1.68,,2013-08-16 03:53:00,
2013-08-15 23:23:00,72.0,72.0,-100.00,North,-999,-999.0,-999.0,100,0.00,,,1.68,,2013-08-16 04:23:00,
2013-08-15 23:53:00,72.0,72.0,-100.00,North,-999,-999.0,-999.0,100,0.00,,,1.68,,2013-08-16 04:53:00,